www.pogodaiklimat.ru

Погода и климат >> Архив погоды >> Россия >> Ханты-Мансийский АО >> Саранпауль


АРХИВ ПОГОДЫ в Саранпауле

Время (UTC), дата Ветер
(напр.,м/с)
 
Видим.   Явления Облачность Т
(С)
Тd
(С)
f
(%)
Тe
(С)
Тes
(С)
Комфортность P
(гПа)
Po
(гПа)
Тmin
(С)
Tmax
(С)
R
(мм)
R24
(мм)
S
(см)
12 11.08 С 2 10 км слаб. ливневой дождь 10/8 600 м
[Cb cap Ac As]
+11.1 +10.2 94 +10 +10 1010.5 1007.0
15 11.08 С 2 10 км слаб. ливневой дождь 10/8 600 м
[Cb cap Ac As]
+10.0 +9.6 97 +8 +8 1009.7 1006.2 +12.6 5
18 11.08 С 3 10 км слаб. ливневой дождь 10/10 600 м
[Cb cap]
+9.5 +9.3 99 +7 +7 1008.3 1004.8
21 11.08 С 4 10 км слаб. ливневой дождь 10/10 600 м
[Cb cap]
+9.0 +8.8 99 +6 +6 1005.9 1002.4
00 12.08 С 4
{10}
10 км слаб. ливневой дождь 10/10 600 м
[Cb cap]
+8.4 +8.2 99 +5 +5 1004.8 1001.3
03 12.08 С 3 4000 м слаб. ливневой дождь 10/10 600 м
[Cb cap]
+8.4 +8.2 99 +6 +6 1005.0 1001.5 +8.2 25
06 12.08 С 2 10 км в посл. час ливневой дождь 10/10 600 м
[Cb cap]
+9.3 +8.4 94 +7 +7 1006.0 1002.5
09 12.08 СЗ 3 4000 м слаб. дождь 10/4 600 м
[Cb cap As op]
+8.4 +7.9 97 +6 +6 1008.5 1005.0
12 12.08 СЗ 2 4000 м слаб. дождь 10/4 600 м
[Cb cap As op]
+9.0 +7.5 90 +7 +8 1011.1 1007.6
15 12.08 СЗ 2 10 км {дождь} 10/3 600 м
[Cb cap Ac As]
+9.6 +7.2 85 +8 +8 1012.8 1009.3 +9.8 4
18 12.08 СЗ 1 10 км {дождь} 10/6 600 м
[Cb cap Ac As]
+8.8 +7.0 88 +8 +8 1014.5 1011.0
21 12.08 С 1 20 км 9/8 600 м
[Cb cap Ac lent]
+8.1 +6.5 90 +7 +7 1015.8 1012.2
00 13.08 С 1 20 км 8/4 600 м
[Sc Ac lent Ci fib]
+6.4 +5.9 97 +5 +5 1017.5 1013.9
03 13.08 С 2 20 км 8/4 600 м
[Sc Ac trans]
+9.4 +6.2 80 +8 +9 1018.6 1015.1 +6.4
06 13.08 С 3 10 км 9/9 600 м
[Sc]
+11.9 +7.3 73 +10 +11 1018.1 1014.6
09 13.08 СВ 2 10 км 10/10 600 м
[Sc]
+12.5 +7.9 74 +12 +12 1018.8 1015.3
12 13.08 С 2 10 км 10/8 600 м
[Sc Cs]
+12.9 +9.3 79 +12 +13 1018.5 1015.0
15 13.08 штиль 0 10 км в посл. час ливневой дождь 10/10 600 м
[Cb cap]
+11.9 +10.6 92 +11 +11 1018.5 1015.0 +13.3 0.0
18 13.08 СЗ 1 10 км {ливн. осадки} 10/8 600 м
[Cb cap Ac As]
+10.9 +9.5 91 +11 +11 1019.1 1015.6
21 13.08 СЗ 2 10 км {ливн. осадки} 10/8 600 м
[Cb cap Ac As]
+10.2 +9.5 95 +9 +9 1017.9 1014.4
00 14.08 С 1 10 км {ливн. осадки} 10/8 600 м
[Cb cap Ac As]
+9.8 +9.7 99 +9 +9 1017.3 1013.7
03 14.08 С 1 4000 м слаб. морось 10/10 300 м
[St]
+10.2 +10.2 100 +10 +10 1016.3 1012.8 +9.8 2
06 14.08 С 1 4000 м гроза, ливневой дождь 10/10 600 м
[Cb cap]
+11.2 +11.8 100 +11 +11 1015.5 1012.2
09 14.08 СЗ 1 10 км слаб. ливневой дождь {гроза} 10/10 600 м
[Cb cap]
+11.7 +11.6 99 +11 +11 1015.2 1011.7
12 14.08 СЗ 1 10 км слаб. ливневой дождь {гроза} 10/10 600 м
[Cb cap]
+12.1 +11.5 96 +12 +12 1013.7 1010.2
15 14.08 СЗ 1 10 км {ливн. осадки} 10/10 300 м
[Cb cap]
+11.8 +11.6 99 +12 +12 1014.4 1010.9 +13.0 6
18 14.08 З 1 2000 м дымка {ливн. осадки} 10/10 300 м
[Cb cap]
+11.5 +11.5 100 +11 +11 1013.9 1010.4
21 14.08 ЮВ 1 2000 м дымка {ливн. осадки} 10/10 300 м
[Cb cap]
+10.8 +10.8 100 +10 +10 1013.3 1009.8
00 15.08 штиль 0 4000 м дымка {ливн. осадки} 10/6 600 м
[Cb cap Ac trans]
+9.2 +9.2 100 +8 +8 1013.4 1009.8
03 15.08 Ю 1 10 км 10/6 600 м
[Cb cap Ac lent Ci sp]
+10.8 +10.8 100 +10 +11 1013.5 1010.0 +8.7 4
06 15.08 ЮВ 1 20 км 6/3 300 м
[Cb cap Ac lent Ci sp]
+15.6 +12.8 83 +16 +21 1013.4 1009.9
09 15.08 ЮЗ 2 20 км 4/3 1000 м
[Cu med, cong Ac lent Ci sp]
+19.2 +11.7 62 +21 +26 комфорт 1013.0 1009.6
12 15.08 ЮВ 2 20 км 6/4 600 м
[Cb cap Ci sp]
+20.5 +12.3 59 +23 +25 комфорт 1012.4 1009.0
15 15.08 ЮЗ 1 20 км 10/3 300 м
[Cb cap Ac lent Ci sp]
+16.9 +13.3 79 +18 +18 1012.5 1009.1 +20.9
18 15.08 СВ 1 10 км 10/4 600 м
[Cb cap Ac lent]
+12.2 +12.0 99 +12 +12 1012.9 1009.4
21 15.08 штиль 0 10 км 8/5 600 м
[Cb cap Ac lent]
+10.1 +10.1 100 +9 +9 1012.2 1008.7
00 16.08 штиль 0 2000 м дымка 8/4 600 м
[Cb cap Ac lent]
+10.2 +10.2 100 +9 +9 1010.9 1007.4
03 16.08 ЮВ 1 10 км в посл. час ливневой дождь {туман} 10/6 600 м
[Cb cap Ac As]
+11.6 +11.6 100 +11 +12 1009.6 1006.1 +9.0 0.0
06 16.08 ЮВ 1 10 км слаб. ливневой дождь 10/10 600 м
[Cb cap]
+14.2 +14.2 100 +14 +14 1008.3 1004.9
09 16.08 Ю 3 10 км {ливн. осадки} 8/5 600 м
[Cb cap Ac lent Ci fib]
+20.5 +16.3 77 +24 +26 комфорт 1007.1 1003.7
12 16.08 ЮЗ 2 20 км {ливн. осадки} 6/4 1000 м
[Cu med, cong Ci fib]
+22.3 +14.8 63 +26 +28 жарко 1007.1 1003.8
15 16.08 ЮЗ 2 50 км 3/1 1000 м
[Cu med, cong Ci fib]
+19.4 +11.1 59 +21 +21 комфорт 1008.9 1005.5 +22.9 4
18 16.08 Ю 2 20 км 8/0
[Ac lent Ci sp]
+14.9 +9.3 69 +15 +15 1009.0 1005.5
21 16.08 Ю 2 20 км 6/0
[Ac lent Ci fib]
+13.4 +8.9 74 +13 +13 1009.8 1006.3
00 17.08 ЮЗ 2 20 км 4/0
[Ac lent Ci fib]
+12.9 +9.2 78 +12 +12 1010.9 1007.4
03 17.08 ЮЗ 3 20 км 4/3 600 м
[Sc Ci sp]
+15.7 +10.6 72 +15 +16 1012.2 1008.7 +12.1
06 17.08 З 4
{10}
50 км 8/4 600 м
[Sc Ac trans Ci sp]
+19.4 +10.1 55 +20 +22 1013.4 1010.0
09 17.08 З 4
{11}
20 км 10/4 600 м
[Sc Ci sp]
+20.4 +9.6 50 +22 +25 комфорт 1014.7 1011.3
12 17.08 З 4 20 км 4/3 600 м
[Sc Ci fib]
+19.6 +10.2 55 +21 +22 комфорт 1016.1 1012.6
15 17.08 З 3 20 км 3/3 600 м
[Sc]
+17.1 +10.7 66 +17 +17 1016.6 1013.2 +20.9
18 17.08 ЮЗ 1 20 км 10/6 1000 м
[Sc Ac As]
+13.1 +10.8 86 +13 +13 1017.8 1014.3
21 17.08 штиль 0 20 км 10/6 1000 м
[Sc Ac As]
+12.6 +10.9 89 +12 +12 1019.2 1015.7
00 18.08 штиль 0 20 км туман поземный 10/0
[Ac lent Ci fib]
+9.3 +9.2 99 +8 +8 1020.7 1017.1
03 18.08 СВ 1 20 км 8/0
[Ac lent Ci fib]
+14.3 +11.1 81 +15 +16 1022.4 1018.9 +9.0

 

Местоположение метеостанции Саранпауль (Ханты-Мансийский АО, Россия): широта 64.28 долгота 60.88 высота над уровнем моря 29 м.

В архиве по умолчанию представлена погода в Саранпауле за последнюю неделю. Архивные данные за месяц целиком и за предыдущие месяцы, начиная с января 2011 года, Вы можете получить, выбрав интересующий диапазон дат из раскрывающегося списка и нажав кнопку "Ввод!".


*Определитесь, кто Вы:
робот инопланетянин человек

Внимание! Время в таблицах - всемирное. Для получения местного времени необходимо прибавить поправку, которая равна 5 ч.

Смотрите также архив погоды в соседних городах и на ближайших метеорологических станциях:

Погода в Сосьве (Ханты-Мансийский АО, Россия) (92 км)
Погода в Приполярном (Ханты-Мансийский АО, Россия) (131 км)
Погода в Усть-Щугоре (Коми, Россия) (157 км)
Погода в Вуктыле (Коми, Россия) (180 км)
Погода в Печоре (Коми, Россия) (202 км)
Погода в Березово (Ханты-Мансийский АО, Россия) (206 км)
Погода в Няксимволе (Ханты-Мансийский АО, Россия) (206 км)
Погода в Игриме (Ханты-Мансийский АО, Россия) (213 км)
Погода в Мужах (Ямало-Ненецкий АО, Россия) (219 км)
Погода в Петруни (Коми, Россия) (239 км)

Пояснения к столбцам:

Ветер - указаны скорость ветра в м/с - средняя за 10 мин, порывы в срок и между сроками (в фигурных скобках) и направление, откуда дует ветер: С - северный, СВ - северо-восточный, В - восточный, ЮВ - юго-восточный, Ю - южный, ЮЗ - юго-западный, З - западный, СЗ - северо-западный.
Видимость - горизонтальная дальность видимости в метрах или километрах. При видимости от 1 до 10 км при отсутствии осадков обычно наблюдается дымка, при ухудшении видимости до 1 км и менее - туман. В сухую погоду видимость может ухудшаться дымом, пылью или мглою.
Явления - указаны атмосферные явления, наблюдавшиеся в срок или в последний час перед сроком; фигурными скобками обозначены явления, наблюдавшиеся между сроками (за 1-3 часа до срока); квадратными скобками обозначены град или гололедные отложения с указанием их диаметра в мм.
Облачность - указаны через наклонную черту общая и нижняя облачность в баллах и высота нижней границы облаков в метрах; квадратными скобками обозначены формы облаков: Ci - перистые, Cs - перисто-слоистые, Cc - перисто-кучевые, Ac - высококучевые, As - высокослоистые, Sc - слоисто-кучевые, Ns - слоисто-дождевые, Cu - кучевые, Cb - кучево-дождевые. Подробнее классификацию облаков см. в Атласе облаков (PDF).
T - Температура воздуха - температура, измеренная на высоте 2 м над землей.
Td - Температура точки росы - температура, при понижении до которой содержащийся в воздухе водяной пар достигнет насыщения.
f - Относительная влажность воздуха - влажноcть воздуха, измеренная на высоте 2 м над землей.
Te - Эффективная температура - температура, которую ощущает одетый по сезону человек в тени. Характеристика душности погоды. При расчете учитывается влияние влажности воздуха и скорости ветра на теплоощущения человека.
Tes - Эффективная температура на солнце - температура, которую ощущает человек, с поправкой на солнечный нагрев. Характеристика знойности погоды. Зависит от высоты солнца над горизонтом, облачности и скорости ветра. Ночью, в пасмурную погоду, а также при ветре 12 м/с и более поправка равна нулю.
P - Атмосферное давление - приведенное к уровню моря атмосферное давление.
Po - Атмосферное давление - измеренное на уровне метеостанции атмосферное давление.
Tmin - Минимальная температура - минимум температуры воздуха на высоте 2 м над землей.
Tmax - Максимальная температура - максимум температуры воздуха на высоте 2 м над землей.
R - Количество осадков - Количество выпавших осадков за период времени, мм. При наведении курсора мыши на число - период времени, за который выпало указанное количество осадков.
R24 - Количество осадков - Количество выпавших осадков за 24 часа, мм.
S - Снежный покров - Высота снежного покрова, см. При наведении курсора мыши на число - состояние снежного покрова и степень покрытия местности в баллах.